Location: Hopewell Observatory
(38.8698°N, 77.6988°W)
Time: 13:19:47
(UTC-04:00)

Amateur Radio Satellites - All Passes

Search period start: 27 March 2015 12:49
Search period end: 28 March 2015 12:49
Location: Hopewell Observatory, 38.8698°N, 77.6988°W

Satellite Date Start Highest point End Downlink Frequencies (MHz)
Time Altitude Azimuth
BUGSAT 1 27 Mar 12:53:16 12:55:33 14° 269° (W) 12:57:39 437.445
NANOSAT C BR1 27 Mar 12:54:37 12:55:10 10° 271° (W) 12:55:28 145.865
YUBILEINY 27 Mar 13:00:27 13:05:45 19° 80° (E) 13:11:33 435.215
Oscar 19 27 Mar 13:00:57 13:05:11 28° 68° (ENE) 13:09:31 437.125/150
HUMSAT D 27 Mar 13:04:27 13:06:39 14° 293° (WNW) 13:08:41 437.325/437.525
BEESAT 3 27 Mar 13:08:56 13:10:20 11° 320° (NW) 13:11:35 437.485
VELOX 1 27 Mar 13:18:55 13:21:42 16° 294° (WNW) 13:24:21 145.980
AISAT 27 Mar 13:22:47 13:25:16 15° 294° (WNW) 13:27:34 437.250
AIST 2 27 Mar 13:24:30 13:27:54 22° 313° (NW) 13:31:15 435.215
CUBEBUG 1 27 Mar 13:25:18 13:28:59 27° 290° (WNW) 13:32:36 437.445
TISAT 1 27 Mar 13:41:35 13:45:48 82° 284° (WNW) 13:49:59 437.305
SPROUT 27 Mar 13:43:11 13:47:26 66° 285° (WNW) 13:51:40 437.525
ESTCUBE 1 27 Mar 13:43:47 13:46:51 18° 293° (WNW) 13:49:45 437.505/2401.250
ITAMSAT 1 27 Mar 14:00:45 14:05:22 34° 69° (ENE) 14:10:04 435.822/435.867
AO-7 27 Mar 14:07:54 14:11:04 13° 49° (NE) 14:14:43 29.400- 29.500
ITUPSAT 1 27 Mar 14:10:01 14:14:06 28° 95° (E) 14:18:13 437.325
PHONESAT 2.4 27 Mar 14:12:36 14:13:31 11° 216° (SW) 14:14:19 2401.200-2431.200
PCSat 27 Mar 14:18:58 14:20:45 12° 104° (ESE) 14:22:52 145.827
O/OREOS (USA 219) 27 Mar 14:19:32 14:23:30 29° 60° (ENE) 14:27:27 437.305
Gurwin Techsat 1B 27 Mar 14:35:33 14:40:43 56° 73° (ENE) 14:45:57 435.225
Oscar 19 27 Mar 14:39:50 14:44:27 33° 264° (W) 14:49:02 437.125/150
YUBILEINY 27 Mar 14:52:48 15:01:36 83° 278° (W) 15:10:31 435.215
SWISSCUBE 27 Mar 14:58:28 15:03:18 81° 283° (WNW) 15:08:03 437.505
BEESAT 27 Mar 15:01:51 15:06:41 81° 284° (WNW) 15:11:26 436.000
JAS-2 27 Mar 15:16:29 15:21:30 23° 60° (ENE) 15:27:08 435.910
HORYU 2 27 Mar 15:20:02 15:23:58 33° 71° (ENE) 15:27:59 437.375
ITAMSAT 1 27 Mar 15:40:25 15:44:55 28° 265° (W) 15:49:20 435.822/435.867
KKS-1 27 Mar 15:46:56 15:51:19 56° 100° (E) 15:55:42 437.445
ITUPSAT 1 27 Mar 15:47:49 15:51:59 29° 291° (WNW) 15:56:02 437.325
AO-7 27 Mar 15:54:17 16:02:24 62° 68° (ENE) 16:10:34 29.400- 29.500
PCSat 27 Mar 15:58:08 16:03:32 82° 298° (WNW) 16:09:01 145.827
O/OREOS (USA 219) 27 Mar 15:59:03 16:02:50 25° 257° (WSW) 16:06:28 437.305
JUGNU 27 Mar 16:00:57 16:01:53 10° 174° (S) 16:02:54 437.505
AIST 1 27 Mar 16:07:35 16:11:55 74° 82° (E) 16:16:11
Gurwin Techsat 1B 27 Mar 16:17:40 16:21:08 17° 270° (W) 16:24:23 435.225
STARS 27 Mar 16:24:15 16:28:40 87° 284° (WNW) 16:33:04 437.465
YUBILEINY 27 Mar 16:54:46 17:00:07 16° 300° (WNW) 17:04:56 435.215
HORYU 2 27 Mar 16:57:21 17:00:44 21° 267° (W) 17:04:02 437.375
JAS-2 27 Mar 16:59:07 17:05:47 71° 259° (W) 17:13:18 435.910
MOZHAYETS 4 27 Mar 17:06:26 17:10:04 23° 93° (E) 17:13:47
AUBIESAT-1 27 Mar 17:23:37 17:24:44 11° 92° (E) 17:26:11 437.475
KKS-1 27 Mar 17:25:17 17:27:33 13° 295° (WNW) 17:29:36 437.445
M-CUBED/EXP-1 PRIME 27 Mar 17:44:02 17:47:41 22° 97° (E) 17:51:25 437.505
Cubesat XI-IV 27 Mar 17:44:42 17:49:03 27° 67° (ENE) 17:53:32 437.490
PCSat 27 Mar 17:45:05 17:47:55 14° 319° (NW) 17:50:32 145.827
CUTE-I 27 Mar 17:45:11 17:49:32 27° 67° (ENE) 17:53:59 437.470
JUGNU 27 Mar 17:48:20 17:50:02 11° 184° (S) 17:51:41 437.505
AO-7 27 Mar 17:48:47 17:55:45 28° 266° (W) 18:02:28 29.400- 29.500
MOZHAYETS 4 27 Mar 18:43:11 18:47:22 33° 289° (WNW) 18:51:29
SRMSAT 27 Mar 18:43:20 18:45:10 11° 180° (S) 18:47:00 437.500
RS-15 27 Mar 18:43:58 18:52:53 32° 107° (ESE) 19:02:13 29.354- 29.394
CUBESAT XI-V 27 Mar 18:47:38 18:51:00 20° 92° (E) 18:54:29 437.345
JAS-2 27 Mar 18:51:40 18:52:34 10° 281° (W) 18:52:49 435.910
PRISM 27 Mar 18:54:46 18:57:29 17° 92° (E) 19:00:19 437.425
AUBIESAT-1 27 Mar 18:55:19 19:00:11 78° 288° (WNW) 19:04:55 437.475
BEESAT 2 27 Mar 19:09:27 19:11:39 14° 43° (NE) 19:13:59 435.950
GONETS M04 27 Mar 19:11:46 19:18:50 30° 85° (E) 19:26:12
M-CUBED/EXP-1 PRIME 27 Mar 19:18:08 19:22:43 41° 293° (WNW) 19:27:12 437.505
Cubesat XI-IV 27 Mar 19:24:00 19:29:01 38° 263° (W) 19:33:59 437.490
CUTE-I 27 Mar 19:24:28 19:29:28 38° 263° (W) 19:34:25 437.470
BRITE-PL 27 Mar 19:44:10 19:47:13 18° 69° (ENE) 19:50:18 437.365/2234.400
BEESAT 3 27 Mar 19:47:59 19:51:47 35° 52° (NE) 19:55:33 437.485
HO-68 27 Mar 19:57:43 20:03:37 30° 63° (ENE) 20:09:42 435.675
CANX-2 27 Mar 19:58:04 19:59:56 13° 66° (ENE) 20:02:00 2200.000
SO-50 27 Mar 20:04:16 20:08:53 86° 301° (WNW) 20:13:42 436.795
AIST 2 27 Mar 20:08:37 20:11:45 20° 46° (NE) 20:14:55 435.215
CUTE 1.7 + AOD 2 27 Mar 20:11:29 20:14:06 17° 68° (ENE) 20:16:54 437.475
STRAND 1 27 Mar 20:21:30 20:26:39 83° 282° (WNW) 20:31:45 437.568
CUBESAT XI-V 27 Mar 20:24:20 20:28:36 36° 288° (WNW) 20:32:48 437.345
PRISM 27 Mar 20:29:17 20:33:08 35° 288° (WNW) 20:36:54 437.425
CINEMA 3 27 Mar 20:35:50 20:37:24 12° 66° (ENE) 20:39:10 145.822/145.860
DOVE 4 27 Mar 20:39:08 20:42:48 27° 71° (ENE) 20:46:26 437.250
GOMX 1 27 Mar 20:40:02 20:44:20 42° 74° (ENE) 20:48:27 467.674
SEEDS 27 Mar 20:42:37 20:46:17 30° 71° (ENE) 20:50:02 437.485
AAUSAT CUBESAT 2 27 Mar 20:43:14 20:46:24 22° 70° (ENE) 20:49:41 437.432
BEESAT 2 27 Mar 20:46:11 20:50:17 64° 242° (WSW) 20:54:18 435.950
RS-15 27 Mar 20:53:42 21:04:32 67° 306° (NW) 21:15:36 29.354- 29.394
Oscar 11 27 Mar 20:54:23 20:56:40 15° 67° (ENE) 20:59:08 145.826/435.025
CUBEBUG 2 27 Mar 21:01:15 21:02:52 12° 66° (ENE) 21:04:42 437.445
GONETS M04 27 Mar 21:06:48 21:15:18 55° 283° (WNW) 21:23:49
COMPASS 1 27 Mar 21:07:46 21:11:46 48° 74° (ENE) 21:15:51 437.405
ZACube-1 27 Mar 21:14:08 21:15:18 11° 66° (ENE) 21:16:42 437.345
BRITE-PL 27 Mar 21:20:55 21:25:34 43° 261° (W) 21:29:52 437.365/2234.400
BEESAT 3 27 Mar 21:26:37 21:29:38 19° 248° (WSW) 21:32:29 437.485
CUSAT 1 27 Mar 21:27:43 21:30:36 38° 98° (E) 21:33:08 437.405
CANX-2 27 Mar 21:31:20 21:35:28 52° 261° (W) 21:39:38 2200.000
HO-68 27 Mar 21:44:05 21:51:03 52° 260° (W) 21:58:01 435.675
CUTE 1.7 + AOD 2 27 Mar 21:45:47 21:49:46 39° 263° (W) 21:53:46 437.475
AIST 2 27 Mar 21:46:32 21:50:34 42° 244° (WSW) 21:54:29 435.215
SO-50 27 Mar 21:47:53 21:50:16 13° 322° (NW) 21:52:31 436.795
UKube-1 27 Mar 21:58:29 22:02:13 29° 70° (ENE) 22:06:00 .
DANDE 27 Mar 22:04:35 22:07:58 72° 279° (W) 22:10:46 436.750
DX 1 27 Mar 22:05:44 22:09:45 37° 71° (ENE) 22:13:47 434.975-435.025
DELFI C3 27 Mar 22:09:19 22:13:23 78° 77° (ENE) 22:17:29 145.870
CINEMA 3 27 Mar 22:10:06 22:14:15 53° 260° (W) 22:18:20 145.822/145.860
DOVE 4 27 Mar 22:17:01 22:20:37 23° 265° (W) 22:24:00 437.250
HUMSAT D 27 Mar 22:18:17 22:21:50 29° 71° (ENE) 22:25:27 437.325/437.525
AAUSAT CUBESAT 2 27 Mar 22:18:18 22:21:56 28° 265° (W) 22:25:32 437.432
SEEDS 27 Mar 22:18:59 22:22:10 20° 267° (W) 22:25:17 437.485
GOMX 1 27 Mar 22:19:50 22:22:42 16° 268° (W) 22:25:19 467.674
Oscar 11 27 Mar 22:28:20 22:32:30 48° 261° (W) 22:36:42 145.826/435.025
UWE-3 27 Mar 22:34:07 22:38:14 66° 259° (W) 22:42:23 435.000/436.395/437.385
FUNcube-1 27 Mar 22:34:57 22:39:06 84° 257° (WSW) 22:43:16 145.935
CUBEBUG 2 27 Mar 22:35:08 22:39:13 52° 260° (W) 22:43:16 437.445
VELOX 1 27 Mar 22:37:49 22:41:51 35° 71° (ENE) 22:45:54 145.980
AISAT 27 Mar 22:41:30 22:45:38 39° 72° (ENE) 22:49:48 437.250
UNISAT 6 27 Mar 22:41:39 22:43:59 14° 90° (E) 22:46:35 437.425
CUBEBUG 1 27 Mar 22:44:45 22:47:46 19° 68° (ENE) 22:50:56 437.445
COMPASS 1 27 Mar 22:45:52 22:47:50 13° 271° (W) 22:49:34 437.405
ZACube-1 27 Mar 22:47:09 22:51:15 58° 260° (W) 22:55:22 437.345
TIGRISAT 27 Mar 22:52:15 22:55:18 18° 92° (E) 22:58:34 435.000
NANOSAT C BR1 27 Mar 23:03:47 23:04:31 11° 89° (E) 23:05:32 145.865
ESTCUBE 1 27 Mar 23:04:30 23:08:36 35° 71° (ENE) 23:12:45 437.505/2401.250
POLYITAN 1 27 Mar 23:05:36 23:07:01 12° 90° (E) 23:08:41 437.675
PCSat 27 Mar 23:07:03 23:08:02 11° 38° (NE) 23:09:17 145.827
RS-15 27 Mar 23:11:18 23:19:42 23° 335° (NNW) 23:28:02 29.354- 29.394
ISS 27 Mar 23:16:22 23:19:14 30° 135° (SE) 23:22:09 145.825
ANTELSAT 27 Mar 23:20:36 23:24:52 38° 98° (E) 23:29:12 437.575/2403.000
50 SAT 27 Mar 23:26:16 23:30:07 61° 259° (W) 23:34:01 437.505
UKube-1 27 Mar 23:34:54 23:38:24 23° 266° (W) 23:41:48 .
QB50P1 27 Mar 23:42:09 23:45:54 31° 96° (E) 23:49:42 145.935-145.965
DX 1 27 Mar 23:43:05 23:46:10 18° 267° (W) 23:49:06 434.975-435.025
DUCHIFAT 1 27 Mar 23:45:06 23:48:54 33° 97° (E) 23:52:43 145.980
HUMSAT D 27 Mar 23:54:38 23:57:41 19° 267° (W) 00:00:38 437.325/437.525
QB50P2 27 Mar 23:56:03 00:00:08 46° 99° (E) 00:04:14 145.880/145.840
VELOX 1 28 Mar 00:15:12 00:18:32 20° 267° (W) 00:21:45 145.980
UNISAT 6 28 Mar 00:16:40 00:21:07 52° 286° (WNW) 00:25:38 437.425
AISAT 28 Mar 00:19:23 00:22:27 17° 268° (W) 00:25:21 437.250
CUBEBUG 1 28 Mar 00:19:47 00:23:55 38° 262° (W) 00:28:01 437.445
POPSAT HIP 1 28 Mar 00:25:11 00:29:26 80° 284° (WNW) 00:33:39 437.405
TIGRISAT 28 Mar 00:27:58 00:32:15 41° 287° (WNW) 00:36:34 435.000
SWISSCUBE 28 Mar 00:30:04 00:31:12 11° 62° (ENE) 00:32:37 437.505
TISAT 1 28 Mar 00:32:28 00:36:38 62° 74° (ENE) 00:40:49 437.305
BEESAT 28 Mar 00:33:27 00:34:30 11° 62° (ENE) 00:35:51 436.000
BUGSAT 1 28 Mar 00:34:34 00:38:37 87° 284° (WNW) 00:42:39 437.445
SPROUT 28 Mar 00:35:52 00:40:09 80° 77° (ENE) 00:44:27 437.525
NANOSAT C BR1 28 Mar 00:36:41 00:40:50 58° 285° (WNW) 00:44:59 145.865
POLYITAN 1 28 Mar 00:39:12 00:43:21 53° 286° (WNW) 00:47:28 437.675
ESTCUBE 1 28 Mar 00:42:05 00:45:36 21° 267° (W) 00:48:59 437.505/2401.250
PCSat 28 Mar 00:47:20 00:52:43 60° 59° (ENE) 00:58:04 145.827
ISS 28 Mar 00:52:44 00:55:38 29° 330° (NNW) 00:58:32 145.825
ANTELSAT 28 Mar 00:58:01 01:01:26 20° 292° (WNW) 01:04:46 437.575/2403.000
YUBILEINY 28 Mar 01:04:52 01:13:14 47° 74° (ENE) 01:21:38 435.215
ITUPSAT 1 28 Mar 01:15:47 01:19:51 29° 69° (ENE) 01:24:03 437.325
QB50P1 28 Mar 01:18:26 01:21:38 20° 291° (WNW) 01:24:43 145.935-145.965
DUCHIFAT 1 28 Mar 01:21:28 01:24:33 19° 292° (WNW) 01:27:31 145.980
RS-15 28 Mar 01:30:44 01:37:48 18° 11° (N) 01:45:14 29.354- 29.394
QB50P2 28 Mar 01:33:19 01:35:43 14° 293° (WNW) 01:37:56 145.880/145.840
SWISSCUBE 28 Mar 02:03:39 02:08:28 82° 259° (WSW) 02:13:18 437.505
BEESAT 28 Mar 02:06:57 02:11:46 82° 258° (WSW) 02:16:35 436.000
ITAMSAT 1 28 Mar 02:16:42 02:18:39 12° 88° (E) 02:20:56 435.822/435.867
PCSat 28 Mar 02:32:09 02:35:41 17° 254° (WSW) 02:38:59 145.827
ISS 28 Mar 02:32:28 02:32:54 10° 350° (N) 02:33:18 145.825
KKS-1 28 Mar 02:43:57 02:48:09 44° 72° (ENE) 02:52:22 437.445
Oscar 19 28 Mar 02:51:53 02:57:05 86° 287° (WNW) 03:02:17 437.125/150
ITUPSAT 1 28 Mar 02:53:34 02:57:44 28° 265° (W) 03:01:51 437.325
Gurwin Techsat 1B 28 Mar 02:53:37 02:57:52 25° 93° (E) 03:02:14 435.225
SO-50 28 Mar 02:59:07 03:00:13 11° 35° (NE) 03:01:31 436.795
YUBILEINY 28 Mar 03:02:02 03:09:55 36° 273° (W) 03:17:32 435.215
STARS 28 Mar 03:19:51 03:24:12 70° 75° (ENE) 03:28:35 437.465
RS-15 28 Mar 03:44:02 03:54:35 42° 43° (NE) 04:05:44 29.354- 29.394
ITAMSAT 1 28 Mar 03:53:37 03:58:48 72° 286° (WNW) 04:03:56 435.822/435.867
AO-7 28 Mar 03:58:42 04:04:14 20° 91° (E) 04:10:11 29.400- 29.500
MOZHAYETS 4 28 Mar 04:07:44 04:10:58 20° 68° (ENE) 04:14:21
ISS 28 Mar 04:10:08 04:10:30 10° 10° (N) 04:10:53 145.825
AUBIESAT-1 28 Mar 04:11:20 04:12:15 11° 57° (ENE) 04:13:23 437.475
JAS-2 28 Mar 04:11:30 04:17:05 22° 87° (E) 04:22:39 435.910
KKS-1 28 Mar 04:22:17 04:25:03 16° 269° (W) 04:27:40 437.445
O/OREOS (USA 219) 28 Mar 04:30:08 04:34:26 41° 106° (ESE) 04:38:47 437.305
M-CUBED/EXP-1 PRIME 28 Mar 04:32:04 04:34:59 20° 62° (ENE) 04:38:11 437.505
Gurwin Techsat 1B 28 Mar 04:33:04 04:38:00 39° 290° (WNW) 04:42:51 435.225
Oscar 19 28 Mar 04:34:37 04:35:45 10° 299° (WNW) 04:36:33 437.125/150
AIST 1 28 Mar 04:35:36 04:39:48 46° 93° (E) 04:44:03
SO-50 28 Mar 04:36:57 04:41:52 61° 56° (NE) 04:46:44 436.795
HORYU 2 28 Mar 04:48:30 04:53:02 82° 105° (ESE) 04:57:32 437.375
GONETS M04 28 Mar 05:24:34 05:28:08 13° 57° (ENE) 05:32:23
AUBIESAT-1 28 Mar 05:42:32 05:46:25 72° 253° (WSW) 05:50:44 437.475
MOZHAYETS 4 28 Mar 05:43:36 05:47:56 39° 263° (W) 05:52:18
ISS 28 Mar 05:44:52 05:47:45 29° 29° (NNE) 05:50:38 145.825
PRISM 28 Mar 05:45:20 05:46:56 12° 65° (ENE) 05:48:42 437.425
AO-7 28 Mar 05:49:41 05:58:01 79° 289° (WNW) 06:06:17 29.400- 29.500
CUBESAT XI-V 28 Mar 05:50:18 05:53:29 19° 67° (ENE) 05:56:48 437.345
JAS-2 28 Mar 05:55:08 06:02:54 70° 287° (WNW) 06:10:02 435.910
RS-15 28 Mar 05:56:23 06:07:45 64° 245° (WSW) 06:19:31 29.354- 29.394
STRAND 1 28 Mar 05:59:46 06:02:30 15° 63° (ENE) 06:05:28 437.568
Cubesat XI-IV 28 Mar 06:05:58 06:06:33 10° 87° (E) 06:07:32 437.490
M-CUBED/EXP-1 PRIME 28 Mar 06:06:07 06:09:40 32° 260° (W) 06:13:29 437.505
CUTE-I 28 Mar 06:06:24 06:06:50 10° 87° (E) 06:07:41 437.470
O/OREOS (USA 219) 28 Mar 06:10:42 06:14:05 19° 304° (WNW) 06:17:22 437.305
AIST 1 28 Mar 06:15:19 06:17:49 14° 291° (WNW) 06:20:06
SO-50 28 Mar 06:18:57 06:22:00 16° 250° (WSW) 06:24:48 436.795
VERMONT LUNAR 28 Mar 06:30:59 06:34:07 39° 156° (SSE) 06:37:17 437.305
PHONESAT 2.4 28 Mar 06:58:38 07:01:43 29° 152° (SSE) 07:04:51 2401.200-2431.200
PRISM 28 Mar 07:17:49 07:21:58 57° 259° (W) 07:26:09 437.425
GONETS M04 28 Mar 07:18:10 07:27:00 72° 80° (E) 07:35:50
ISS 28 Mar 07:21:17 07:24:08 29° 226° (SW) 07:26:58 145.825
CUBESAT XI-V 28 Mar 07:26:08 07:30:39 43° 262° (W) 07:35:08 437.345
STRAND 1 28 Mar 07:36:06 07:41:13 67° 259° (W) 07:46:22 437.568
Cubesat XI-IV 28 Mar 07:42:06 07:47:28 86° 286° (WNW) 07:52:48 437.490
CUTE-I 28 Mar 07:42:23 07:47:44 86° 284° (WNW) 07:53:03 437.470
JAS-2 28 Mar 07:42:43 07:46:38 14° 305° (NW) 07:50:01 435.910
AO-7 28 Mar 07:44:32 07:49:42 18° 307° (NW) 07:54:27 29.400- 29.500
CUSAT 1 28 Mar 08:03:06 08:06:56 33° 78° (ENE) 08:11:55 437.405
VERMONT LUNAR 28 Mar 08:08:24 08:11:45 73° 351° (N) 08:15:08 437.305
RS-15 28 Mar 08:14:30 08:18:29 11° 261° (W) 08:21:10 29.354- 29.394
PHONESAT 2.4 28 Mar 08:36:21 08:39:53 85° 343° (NNW) 08:43:27 2401.200-2431.200
DANDE 28 Mar 08:43:11 08:47:05 64° 81° (E) 08:52:23 436.750
GOMX 1 28 Mar 08:44:19 08:46:03 12° 90° (E) 08:48:02 467.674
HO-68 28 Mar 09:13:17 09:19:36 33° 96° (E) 09:26:01 435.675
GONETS M04 28 Mar 09:16:33 09:23:06 23° 278° (W) 09:29:15
CANX-2 28 Mar 09:18:14 09:21:57 28° 95° (E) 09:25:43 2200.000
Cubesat XI-IV 28 Mar 09:25:21 09:26:51 11° 300° (WNW) 09:28:02 437.490
CUTE-I 28 Mar 09:25:35 09:27:06 11° 300° (WNW) 09:28:18 437.470
BRITE-PL 28 Mar 09:26:21 09:30:30 60° 100° (E) 09:34:49 437.365/2234.400
CUTE 1.7 + AOD 2 28 Mar 09:32:11 09:36:11 37° 97° (E) 09:40:12 437.475
UNISAT 6 28 Mar 09:41:47 09:42:29 10° 64° (ENE) 09:43:27 437.425
CUSAT 1 28 Mar 09:46:16 09:49:43 21° 264° (W) 09:53:45 437.405
VERMONT LUNAR 28 Mar 09:46:16 09:49:37 72° 7° (N) 09:53:00 437.305
TIGRISAT 28 Mar 09:51:24 09:53:21 13° 66° (ENE) 09:55:31 435.000
DELFI C3 28 Mar 09:52:30 09:53:57 12° 89° (E) 09:55:38 145.870
AAUSAT CUBESAT 2 28 Mar 10:02:06 10:06:12 47° 99° (E) 10:10:18 437.432
SEEDS 28 Mar 10:03:22 10:07:39 72° 100° (E) 10:11:56 437.485
CINEMA 3 28 Mar 10:05:44 10:09:48 36° 98° (E) 10:14:02 145.822/145.860
PHONESAT 2.4 28 Mar 10:14:52 10:18:23 67° 4° (N) 10:21:56 2401.200-2431.200
DOVE 4 28 Mar 10:15:41 10:20:00 88° 283° (WNW) 10:24:32 437.250
Oscar 11 28 Mar 10:17:03 10:20:57 32° 96° (E) 10:24:53 145.826/435.025
ANTELSAT 28 Mar 10:19:06 10:22:41 28° 70° (ENE) 10:26:23 437.575/2403.000
GOMX 1 28 Mar 10:20:24 10:24:32 51° 285° (WNW) 10:28:51 467.674
FUNcube-1 28 Mar 10:25:08 10:28:23 20° 93° (E) 10:31:46 145.935
UWE-3 28 Mar 10:25:21 10:29:01 26° 95° (E) 10:32:51 435.000/436.395/437.385
CUBEBUG 2 28 Mar 10:27:10 10:31:10 33° 97° (E) 10:35:18 437.445
COMPASS 1 28 Mar 10:28:00 10:32:15 72° 284° (WNW) 10:36:28 437.405
QB50P1 28 Mar 10:34:24 10:37:32 21° 69° (ENE) 10:40:46 145.935-145.965
DUCHIFAT 1 28 Mar 10:37:01 10:40:13 22° 69° (ENE) 10:43:30 145.980
ZACube-1 28 Mar 10:37:03 10:40:50 28° 96° (E) 10:44:43 437.345
BEESAT 2 28 Mar 10:39:23 10:43:01 32° 114° (ESE) 10:46:45 435.950
QB50P2 28 Mar 10:48:08 10:51:48 30° 71° (ENE) 10:55:32 145.880/145.840
CANX-2 28 Mar 10:54:19 10:57:47 23° 290° (WNW) 11:01:09 2200.000
HO-68 28 Mar 11:00:41 11:07:29 45° 293° (WNW) 11:14:11 435.675
50 SAT 28 Mar 11:06:15 11:08:59 18° 93° (E) 11:11:51 437.505
BRITE-PL 28 Mar 11:07:25 11:08:41 11° 294° (WNW) 11:09:45 437.365/2234.400
CUTE 1.7 + AOD 2 28 Mar 11:08:51 11:11:53 18° 292° (WNW) 11:14:47 437.475
UNISAT 6 28 Mar 11:14:32 11:18:46 67° 259° (W) 11:23:04 437.425
POPSAT HIP 1 28 Mar 11:16:41 11:20:51 64° 75° (ENE) 11:25:02 437.405
BEESAT 3 28 Mar 11:17:36 11:21:41 79° 301° (WNW) 11:25:50 437.485
UKube-1 28 Mar 11:22:42 11:27:00 64° 101° (E) 11:31:17 .
BUGSAT 1 28 Mar 11:23:16 11:27:21 53° 75° (ENE) 11:31:23 437.445
VERMONT LUNAR 28 Mar 11:24:05 11:27:17 40° 204° (SSW) 11:30:27 437.305
DELFI C3 28 Mar 11:25:31 11:29:30 49° 286° (WNW) 11:33:27 145.870
TIGRISAT 28 Mar 11:25:35 11:29:43 51° 261° (W) 11:33:54 435.000
NANOSAT C BR1 28 Mar 11:27:49 11:32:02 87° 78° (ENE) 11:36:16 145.865
POLYITAN 1 28 Mar 11:30:49 11:35:02 85° 257° (WSW) 11:39:16 437.675
DX 1 28 Mar 11:31:04 11:35:25 85° 103° (ESE) 11:39:45 434.975-435.025
HUMSAT D 28 Mar 11:38:35 11:42:49 70° 100° (E) 11:47:06 437.325/437.525
AAUSAT CUBESAT 2 28 Mar 11:39:08 11:41:29 14° 293° (WNW) 11:43:39 437.432
AIST 2 28 Mar 11:42:57 11:47:05 54° 117° (ESE) 11:51:18 435.215
CINEMA 3 28 Mar 11:43:35 11:46:50 20° 291° (WNW) 11:50:02 145.822/145.860
PHONESAT 2.4 28 Mar 11:53:16 11:56:45 55° 201° (SSW) 12:00:14 2401.200-2431.200
Oscar 11 28 Mar 11:53:37 11:56:58 21° 291° (WNW) 12:00:13 145.826/435.025
ANTELSAT 28 Mar 11:56:05 11:59:31 23° 266° (W) 12:02:54 437.575/2403.000
FUNcube-1 28 Mar 12:00:52 12:04:49 33° 288° (WNW) 12:08:47 145.935
UWE-3 28 Mar 12:01:48 12:05:32 27° 289° (WNW) 12:09:15 435.000/436.395/437.385
CUBEBUG 2 28 Mar 12:04:20 12:07:43 21° 291° (WNW) 12:11:04 437.445
VELOX 1 28 Mar 12:05:39 12:10:05 86° 103° (ESE) 12:14:28 145.980
QB50P1 28 Mar 12:09:31 12:13:17 30° 264° (W) 12:17:00 145.935-145.965
AISAT 28 Mar 12:09:44 12:14:10 83° 284° (WNW) 12:18:34 437.250
CUBEBUG 1 28 Mar 12:09:48 12:13:55 41° 98° (E) 12:18:00 437.445
DUCHIFAT 1 28 Mar 12:12:14 12:15:56 29° 264° (W) 12:19:34 145.980
ZACube-1 28 Mar 12:13:33 12:17:07 25° 290° (WNW) 12:20:41 437.345
BEESAT 2 28 Mar 12:17:49 12:21:13 24° 311° (NW) 12:24:36 435.950
TISAT 1 28 Mar 12:21:18 12:21:57 10° 89° (E) 12:22:51 437.305
QB50P2 28 Mar 12:24:32 12:27:46 21° 266° (W) 12:30:55 145.880/145.840
SPROUT 28 Mar 12:25:15 12:27:41 15° 91° (E) 12:30:18 437.525
Oscar 19 28 Mar 12:31:13 12:33:47 15° 63° (ENE) 12:36:37 437.125/150
ESTCUBE 1 28 Mar 12:34:47 12:39:19 90° 295° (WNW) 12:43:49 437.505/2401.250
50 SAT 28 Mar 12:40:24 12:44:00 32° 288° (WNW) 12:47:36 437.505
